GW2085 Weather Reports


Display with metric or nautical units.
time (UTC)temp
F
wind
direction
speed
MPH
gust
MPH
rain 1hr
in
rain 24hr
in
rain mn
in
humidity
%
barometer
mb
20260508033049 62 0 0.0 1.0 0.00 0.00 0.00 78 1015.3
20260508031554 62 234 0.0 4.0 0.00 0.00 0.00 77 1015.0
20260508030054 63 231 0.0 4.0 0.00 0.00 0.00 75 1014.9
20260508024557 64 288 0.0 4.0 0.00 0.00 0.00 74 1014.7
20260508023050 66 257 1.0 3.0 0.00 0.00 0.00 72 1014.6
20260508021555 67 0 1.0 2.0 0.00 0.00 0.00 70 1014.4
20260508020056 68 257 0.0 3.0 0.00 0.00 0.00 69 1014.3
20260508014551 69 0 0.0 3.0 0.00 0.00 0.00 67 1014.2
20260508013054 70 320 1.0 4.0 0.00 0.00 0.00 65 1014.2
20260508011549 71 0 0.0 4.0 0.00 0.00 0.00 65 1014.2
20260508010052 71 327 1.0 5.0 0.00 0.00 0.00 64 1014.2
20260508004559 72 210 1.0 5.0 0.00 0.00 0.00 62 1014.2
20260508003050 73 276 2.0 5.0 0.00 0.00 0.00 61 1014.1
20260508001550 74 238 2.0 7.0 0.00 0.00 0.00 59 1014.2
20260508000054 74 313 1.0 6.0 0.00 0.00 0.00 59 1014.2
20260507234559 74 283 2.0 6.0 0.00 0.00 0.00 58 1014.1
20260507233056 74 252 2.0 6.0 0.00 0.00 0.00 59 1014.1
20260507231557 73 222 1.0 7.0 0.00 0.00 0.00 61 1014.1
20260507230059 74 216 1.0 5.0 0.00 0.00 0.00 60 1014.0
20260507224556 74 212 2.0 8.0 0.00 0.00 0.00 60 1014.2
20260507223050 74 276 3.0 9.0 0.00 0.00 0.00 59 1014.2
20260507221550 75 250 2.0 8.0 0.00 0.00 0.00 58 1014.3
20260507220052 75 159 2.0 8.0 0.00 0.00 0.00 58 1014.3
20260507214614 76 237 3.0 5.0 0.00 0.00 0.00 57 1014.4
20260507213104 76 324 3.0 7.0 0.00 0.00 0.00 57 1014.6
20260507211607 76 311 4.0 7.0 0.00 0.00 0.00 57 1014.5
20260507210055 77 68 3.0 7.0 0.00 0.00 0.00 56 1014.7
20260507204606 76 207 3.0 8.0 0.00 0.00 0.00 56 1015.0
20260507203100 77 325 3.0 7.0 0.00 0.00 0.00 55 1015.0
20260507201553 78 122 2.0 5.0 0.00 0.00 0.00 55 1015.0
20260507200055 77 269 3.0 10.0 0.00 0.00 0.00 56 1015.0
20260507194635 77 261 3.0 8.0 0.00 0.00 0.00 55 1014.9
20260507193052 78 200 4.0 7.0 0.00 0.00 0.00 55 1015.0
20260507191554 78 54 2.0 6.0 0.00 0.00 0.00 53 1015.1
20260507190055 76 23 2.0 6.0 0.00 0.00 0.00 53 1015.3
20260507184604 75 58 2.0 5.0 0.00 0.00 0.00 53 1015.4
20260507183055 75 265 2.0 5.0 0.00 0.00 0.00 53 1015.7
20260507181554 75 230 2.0 5.0 0.00 0.00 0.00 54 1015.9
20260507180054 73 302 1.0 4.0 0.00 0.00 0.00 59 1016.1
20260507174551 72 273 1.0 4.0 0.00 0.00 0.00 60 1016.2
20260507173050 70 214 2.0 4.0 0.00 0.00 0.00 63 1016.3
20260507171556 69 64 1.0 4.0 0.00 0.00 0.00 65 1016.4
20260507170049 68 313 2.0 4.0 0.00 0.00 0.00 69 1016.4
20260507164551 65 118 2.0 5.0 0.00 0.00 0.00 72 1016.5
20260507163050 65 271 2.0 4.0 0.00 0.00 0.00 74 1016.7
20260507161550 63 221 1.0 4.0 0.00 0.00 0.00 80 1016.8
20260507160058 62 213 1.0 3.0 0.00 0.00 0.00 84 1016.8
20260507154559 59 164 1.0 2.0 0.00 0.00 0.00 90 1016.9
20260507153057 58 264 1.0 2.0 0.00 0.00 0.00 91 1016.8
20260507151552 56 266 1.0 3.0 0.00 0.00 0.00 91 1016.9
20260507150059 56 272 2.0 3.0 0.00 0.00 0.00 92 1016.7
20260507144553 55 281 0.0 1.0 0.00 0.00 0.00 91 1016.7
20260507143110 54 0 0.0 1.0 0.00 0.00 0.00 92 1016.6
20260507141554 54 0 0.0 1.0 0.00 0.00 0.00 92 1016.4
20260507140055 53 0 0.0 1.0 0.00 0.00 0.00 92 1016.5
20260507134557 52 57 0.0 1.0 0.00 0.00 0.00 92 1016.3
20260507133106 51 0 0.0 0.0 0.00 0.00 0.00 92 1016.3
20260507131612 50 0 0.0 0.0 0.00 0.00 0.00 92 1016.3
20260507130056 49 0 0.0 0.0 0.00 0.00 0.00 92 1016.2
20260507124549 49 0 0.0 0.0 0.00 0.00 0.00 92 1015.9
20260507123052 49 0 0.0 1.0 0.00 0.00 0.00 92 1015.8
20260507121552 49 0 0.0 0.0 0.00 0.00 0.00 92 1015.8
20260507120051 49 0 0.0 0.0 0.00 0.00 0.00 91 1015.8
20260507114551 50 0 0.0 0.0 0.00 0.00 0.00 91 1015.9
20260507113050 50 0 0.0 0.0 0.00 0.00 0.00 91 1016.0
20260507111552 50 0 0.0 0.0 0.00 0.00 0.00 91 1016.0
20260507110052 50 0 0.0 0.0 0.00 0.00 0.00 91 1016.1
20260507104550 50 0 0.0 0.0 0.00 0.00 0.00 91 1016.2
20260507103052 50 0 0.0 0.0 0.00 0.00 0.00 90 1016.2
20260507101556 51 0 0.0 0.0 0.00 0.00 0.00 90 1016.4
20260507100054 51 0 0.0 0.0 0.00 0.00 0.00 90 1016.4
20260507094553 51 0 0.0 0.0 0.00 0.00 0.00 90 1016.5
20260507093058 51 0 0.0 0.0 0.00 0.00 0.00 90 1016.8
20260507091556 52 0 0.0 0.0 0.00 0.00 0.00 90 1016.7
20260507090054 52 0 0.0 0.0 0.00 0.00 0.00 90 1016.8
20260507084551 52 0 0.0 0.0 0.00 0.00 0.00 89 1017.0
20260507083052 53 0 0.0 0.0 0.00 0.00 0.00 89 1017.1
20260507081554 53 0 0.0 0.0 0.00 0.00 0.00 89 1017.3
20260507080111 53 0 0.0 0.0 0.00 0.00 0.00 88 1017.4
20260507074554 54 0 0.0 1.0 0.00 0.00 0.00 88 1017.5
20260507073051 54 0 0.0 1.0 0.00 0.00 0.00 88 1017.4
20260507071608 54 0 0.0 0.0 0.00 0.00 0.00 88 1017.4
20260507070055 54 0 0.0 0.0 0.00 0.00 0.00 87 1017.5
20260507064552 55 0 0.0 0.0 0.00 0.00 0.00 87 1017.4
20260507063057 55 0 0.0 0.0 0.00 0.00 0.00 86 1017.6
20260507061558 55 0 0.0 0.0 0.00 0.00 0.00 86 1017.4
20260507060058 56 0 0.0 0.0 0.00 0.00 0.00 85 1017.5
20260507054603 56 0 0.0 0.0 0.00 0.00 0.00 84 1017.4
20260507053117 57 0 0.0 0.0 0.00 0.00 0.00 83 1017.4
20260507051604 57 0 0.0 0.0 0.00 0.00 0.00 82 1017.4
20260507050056 58 0 0.0 0.0 0.00 0.00 0.00 81 1017.3
20260507044557 58 0 0.0 0.0 0.00 0.00 0.00 79 1017.2
20260507043100 59 0 0.0 0.0 0.00 0.00 0.00 78 1017.2
20260507041555 59 0 0.0 0.0 0.00 0.00 0.00 75 1017.2
20260507040049 60 0 0.0 1.0 0.00 0.00 0.00 74 1017.1
20260507034555 60 0 0.0 2.0 0.00 0.00 0.00 73 1017.1